Weather History for Salem, IL

Change the Weather History Date:

Thursday, January 12, 2012

  Actual Average Record
Temperature  
Mean Temperature 26 °F -  
Max Temperature 37 °F 34 °F 66 °F (2005)
Min Temperature 16 °F 18 °F -10 °F (1977)
Degree Days  
Heating Degree Days 38    
Moisture  
Dew Point 19 °F    
Average Humidity 80    
Maximum Humidity 99    
Minimum Humidity 63    
Precipitation  
Precipitation 0.00 in - - ()
Sea Level Pressure  
Sea Level Pressure 29.68 in    
Wind  
Wind Speed 16 mph (WNW)    
Max Wind Speed 28 mph    
Max Gust Speed 36 mph    
Visibility 5 miles    
Events Snow    
Averages and records for this station are not official NWS values.
T = Trace of Precipitation, MM = Missing Value Source: NWS Daily Summary

Daily Weather History Graph

Daily Weather History Graph

Search for Another Location

Airport:

Trip Planner

Search our weather history database for the weather conditions in past years. The results will help you decide how hot, cold, wet, or windy it might be!

Date:

Astronomy

Jan. 12, 2012 Rise Set
Actual Time 7:13 AM CST 4:55 PM CST
Civil Twilight 6:44 AM CST 5:24 PM CST
Nautical Twilight 6:11 AM CST 5:57 PM CST
Astronomical Twilight 5:39 AM CST 6:29 PM CST
Moon 8:57 PM CST (1/12) 8:59 AM CST (1/12)
Length of Visible Light 10h 40m
Length of Day
9h 41m
Waning Gibbous, 87% of the Moon is Illuminated
Jan 12
Waning Gibbous
Jan 16
Last Quarter
Jan 23
New
Jan 30
First Quarter
Feb 7
Full

Hourly Weather History & Observations

Time (CST) Temp. Windchill Dew Point Humidity Pressure Visibility Wind Dir Wind Speed Gust Speed Precip Events Conditions
12:15 AM 37.6 °F 31.6 °F 37.2 °F 99% 29.59 in 10.0 mi NW 8.1 mph - N/A   Clear
12:35 AM 37.4 °F 29.3 °F 33.4 °F 86% 29.60 in 10.0 mi NW 12.7 mph 19.6 mph N/A   Clear
12:55 AM 36.9 °F 29.6 °F 33.4 °F 87% 29.61 in 10.0 mi WNW 10.4 mph - N/A   Scattered Clouds
1:15 AM 37.2 °F 30.0 °F 33.8 °F 87% 29.61 in 10.0 mi WNW 10.4 mph 17.3 mph N/A   Mostly Cloudy
1:35 AM 37.4 °F 29.8 °F 34.0 °F 87% 29.61 in 7.0 mi WNW 11.5 mph - N/A   Overcast
1:55 AM 37.4 °F 29.8 °F 34.2 °F 88% 29.61 in 7.0 mi WNW 11.5 mph - N/A   Overcast
2:15 AM 36.5 °F 27.0 °F 33.3 °F 88% 29.62 in 7.0 mi WNW 16.1 mph 26.5 mph N/A   Overcast
2:35 AM 35.1 °F 25.9 °F 32.7 °F 91% 29.63 in 7.0 mi WNW 13.8 mph 23.0 mph N/A   Overcast
2:55 AM 34.2 °F 24.8 °F 32.0 °F 92% 29.63 in 7.0 mi NW 13.8 mph 20.7 mph N/A   Overcast
3:15 AM 33.1 °F 23.0 °F 31.8 °F 95% 29.63 in 5.0 mi WNW 15.0 mph 19.6 mph N/A   Overcast
3:35 AM 32.0 °F 20.1 °F 30.0 °F 92% 29.63 in 7.0 mi WNW 19.6 mph 24.2 mph N/A   Overcast
3:55 AM 32.0 °F 23.6 °F 30.0 °F 92% 29.63 in 7.0 mi NW 10.4 mph 18.4 mph N/A   Overcast
4:15 AM 32.0 °F 21.6 °F 30.2 °F 93% 29.63 in 7.0 mi WNW 15.0 mph 18.4 mph N/A   Overcast
4:35 AM 30.9 °F 19.4 °F 28.6 °F 91% 29.63 in 10.0 mi WNW 17.3 mph 23.0 mph N/A   Overcast
4:55 AM 30.2 °F 19.8 °F 27.5 °F 90% 29.64 in 10.0 mi WNW 13.8 mph 20.7 mph N/A   Overcast
5:15 AM 29.3 °F 17.0 °F 26.2 °F 88% 29.65 in 10.0 mi WNW 18.4 mph 23.0 mph N/A   Overcast
5:35 AM 28.9 °F 17.7 °F 25.9 °F 88% 29.65 in 10.0 mi West 15.0 mph 24.2 mph N/A   Overcast
5:55 AM 27.7 °F 15.2 °F 24.3 °F 87% 29.67 in 5.0 mi WNW 17.3 mph 23.0 mph N/A Snow Light Snow
6:15 AM 26.6 °F 13.4 °F 23.0 °F 86% 29.66 in 2.5 mi West 18.4 mph - N/A Snow Light Snow
6:35 AM 25.7 °F 14.6 °F 22.8 °F 89% 29.66 in 2.0 mi WNW 12.7 mph - N/A Snow Light Snow
6:55 AM 24.4 °F 11.5 °F 22.1 °F 91% 29.67 in 1.2 mi WNW 16.1 mph 21.9 mph N/A Snow Light Snow
7:15 AM 23.7 °F 8.5 °F 20.8 °F 89% 29.67 in 4.0 mi West 21.9 mph 26.5 mph N/A Snow Light Snow
7:35 AM 22.8 °F 8.1 °F 17.6 °F 80% 29.68 in 7.0 mi WNW 19.6 mph 26.5 mph N/A Snow Light Snow
7:55 AM 22.1 °F 8.9 °F 18.3 °F 85% 29.69 in 3.0 mi West 15.0 mph 19.6 mph N/A Snow Light Snow
8:15 AM 21.7 °F 8.5 °F 17.2 °F 83% 29.68 in 2.5 mi West 15.0 mph - N/A Snow Light Snow
8:35 AM 21.2 °F 6.4 °F 15.6 °F 79% 29.69 in 3.0 mi WNW 18.4 mph 27.6 mph N/A Snow Light Snow
8:55 AM 21.0 °F 6.6 °F 14.5 °F 76% 29.70 in 4.0 mi West 17.3 mph 20.7 mph N/A   Haze
9:15 AM 21.2 °F 6.8 °F 14.7 °F 76% 29.70 in 3.0 mi WNW 17.3 mph 24.2 mph N/A Snow Light Snow
9:35 AM 20.5 °F 5.0 °F 12.6 °F 71% 29.70 in 7.0 mi West 19.6 mph 25.3 mph N/A Snow Light Snow
9:55 AM 20.1 °F 4.2 °F 12.6 °F 73% 29.71 in 4.0 mi West 20.7 mph 26.5 mph N/A Snow Light Snow
10:15 AM 20.1 °F 4.6 °F 11.3 °F 69% 29.71 in 10.0 mi West 19.6 mph 26.5 mph N/A Snow Light Snow
10:35 AM 20.5 °F 5.0 °F 11.1 °F 67% 29.72 in 10.0 mi West 19.6 mph 27.6 mph N/A   Overcast
10:55 AM 20.3 °F 4.0 °F 10.6 °F 66% 29.71 in 10.0 mi West 21.9 mph 28.8 mph N/A Snow Light Snow
11:15 AM 21.2 °F 5.2 °F 10.4 °F 63% 29.70 in 10.0 mi WNW 21.9 mph 29.9 mph N/A Snow Light Snow
11:35 AM 20.3 °F 3.7 °F 10.4 °F 66% 29.69 in 4.0 mi WNW 23.0 mph 28.8 mph N/A Snow Light Snow
11:55 AM 21.2 °F 6.0 °F 10.6 °F 64% 29.68 in 10.0 mi WNW 19.6 mph 27.6 mph N/A Snow Light Snow
12:15 PM 21.2 °F 7.8 °F 11.5 °F 66% 29.68 in 7.0 mi WNW 15.0 mph 24.2 mph N/A Snow Light Snow
12:35 PM 21.9 °F 7.3 °F 11.8 °F 65% 29.68 in 7.0 mi West 18.4 mph 26.5 mph N/A Snow Light Snow
12:55 PM 22.3 °F 7.8 °F 14.9 °F 73% 29.67 in 2.5 mi West 18.4 mph 25.3 mph N/A Snow Light Snow
1:15 PM 22.1 °F 5.7 °F 16.2 °F 78% 29.67 in 1.2 mi West 24.2 mph 35.7 mph N/A Snow Light Snow
1:35 PM 19.8 °F 4.1 °F 14.0 °F 78% 29.69 in 0.5 mi WNW 19.6 mph 31.1 mph N/A Snow Light Snow
1:55 PM 20.1 °F 5.4 °F 14.4 °F 78% 29.69 in 1.0 mi West 17.3 mph 26.5 mph N/A Snow Light Snow
2:15 PM 20.5 °F 5.0 °F 11.8 °F 69% 29.69 in 2.5 mi West 19.6 mph 26.5 mph N/A Snow Light Snow
2:35 PM 19.4 °F 5.0 °F 13.8 °F 79% 29.70 in 0.8 mi West 16.1 mph 23.0 mph N/A Snow Light Snow
2:55 PM 19.4 °F 4.1 °F 12.7 °F 75% 29.71 in 1.0 mi WNW 18.4 mph 28.8 mph N/A Snow Light Snow
3:15 PM 19.0 °F 3.6 °F 12.2 °F 75% 29.72 in 1.8 mi West 18.4 mph 24.2 mph N/A Snow Light Snow
3:35 PM 18.5 °F 2.0 °F 13.3 °F 80% 29.73 in 0.8 mi West 20.7 mph 28.8 mph N/A Snow Light Snow
3:55 PM 18.3 °F -0.3 °F 13.1 °F 80% 29.74 in 0.5 mi West 27.6 mph 34.5 mph N/A Snow Snow
4:15 PM 17.4 °F -0.2 °F 12.2 °F 80% 29.76 in 0.8 mi West 23.0 mph 29.9 mph N/A Snow Light Snow
4:35 PM 16.7 °F -1.8 °F 10.9 °F 78% 29.77 in 0.8 mi West 25.3 mph 31.1 mph N/A Snow Light Snow
4:55 PM 16.7 °F -1.1 °F 10.9 °F 78% 29.78 in 1.2 mi West 23.0 mph 34.5 mph N/A Snow Light Snow
5:15 PM 16.7 °F 0.5 °F 9.0 °F 72% 29.79 in 4.0 mi West 18.4 mph 27.6 mph N/A Snow Light Snow
5:35 PM 16.7 °F -2.2 °F 9.3 °F 73% 29.80 in 3.0 mi West 26.5 mph 32.2 mph N/A Snow Light Snow
5:55 PM 16.5 °F -2.1 °F 8.6 °F 71% 29.81 in 3.0 mi West 25.3 mph 35.7 mph N/A Snow Light Snow
6:15 PM 16.3 °F -2.0 °F 9.3 °F 74% 29.82 in 3.0 mi West 24.2 mph 29.9 mph N/A Snow Light Snow
6:35 PM 15.6 °F -3.3 °F 8.2 °F 73% 29.83 in 2.0 mi West 25.3 mph 35.7 mph N/A Snow Light Snow
6:55 PM 15.6 °F -1.8 °F 8.6 °F 74% 29.83 in 5.0 mi West 20.7 mph 31.1 mph N/A Snow Light Snow
7:15 PM 15.3 °F -2.6 °F 8.1 °F 73% 29.84 in 5.0 mi West 21.9 mph 32.2 mph N/A   Haze
7:35 PM 15.4 °F -1.1 °F 8.2 °F 73% 29.84 in 4.0 mi West 18.4 mph 29.9 mph N/A Snow Light Snow
7:55 PM 15.3 °F -2.6 °F 9.0 °F 76% 29.84 in 2.0 mi West 21.9 mph 29.9 mph N/A Snow Light Snow
8:15 PM 15.3 °F -1.8 °F 8.6 °F 75% 29.85 in 2.0 mi West 19.6 mph 34.5 mph N/A Snow Light Snow
8:35 PM 15.3 °F -0.9 °F 9.3 °F 77% 29.85 in 2.0 mi West 17.3 mph 24.2 mph N/A Snow Light Snow
8:55 PM 15.3 °F -2.2 °F 9.0 °F 76% 29.85 in 3.0 mi West 20.7 mph 25.3 mph N/A Snow Light Snow
9:15 PM 15.4 °F -0.6 °F 9.3 °F 77% 29.85 in 2.5 mi West 17.3 mph 24.2 mph N/A Snow Light Snow
9:35 PM 16.0 °F 0.6 °F 9.7 °F 76% 29.85 in 4.0 mi West 16.1 mph 24.2 mph N/A Snow Light Snow
9:55 PM 15.6 °F 0.1 °F 10.0 °F 79% 29.85 in 2.5 mi WSW 16.1 mph 20.7 mph N/A Snow Light Snow
10:15 PM 15.8 °F 0.3 °F 9.5 °F 76% 29.85 in 4.0 mi West 16.1 mph - N/A Snow Light Snow
10:35 PM 15.8 °F -1.1 °F 9.5 °F 76% 29.85 in 4.0 mi West 19.6 mph 25.3 mph N/A Snow Light Snow
10:55 PM 15.8 °F 0.3 °F 9.5 °F 76% 29.86 in 4.0 mi WSW 16.1 mph - N/A Snow Light Snow
11:15 PM 15.8 °F 0.9 °F 10.2 °F 79% 29.86 in 3.0 mi West 15.0 mph 23.0 mph N/A Snow Light Snow
11:35 PM 16.0 °F 0.6 °F 10.9 °F 81% 29.86 in 2.5 mi West 16.1 mph 21.9 mph N/A Snow Light Snow
11:55 PM 16.7 °F 1.0 °F 9.7 °F 74% 29.87 in 7.0 mi West 17.3 mph 29.9 mph N/A Snow Light Snow